Alturas, CA

7:31 PM PDT on May 22, 2018 (GMT -0700)
Alturas Municipal

Weather History for KAAT - March, 2012

Change the Weather History Date:

Sunday, March 25, 2012

  Actual Average Record
Temperature  
Mean Temperature 39 °F 39 °F  
Max Temperature 49 °F 53 °F 79 °F (1934)
Min Temperature 28 °F 25 °F 4 °F (1927)
Degree Days  
Heating Degree Days 26 26  
Month to date heating degree days 692 673  
Since 1 July heating degree days 5347 5540  
Cooling Degree Days 0 0  
Month to date cooling degree days 0 0  
Year to date cooling degree days 0 0  
Moisture  
Dew Point 28 °F    
Average Humidity 71    
Maximum Humidity 92    
Minimum Humidity 49    
Precipitation  
Precipitation T in 0.06 in 1.14 in (1993)
Month to date precipitation 0.79 1.19  
Year to date precipitation 2.57 4.29  
Sea Level Pressure  
Sea Level Pressure 29.71 in    
Wind  
Wind Speed 7 mph (West)    
Max Wind Speed 23 mph    
Max Gust Speed 29 mph    
Visibility 10 miles    
Events Rain , Snow    
T = Trace of Precipitation, MM = Missing Value Source: NWS Daily Summary

Daily Weather History Graph

Daily Weather History Graph

Search for Another Location

Airport or City:

Astronomy

Mar. 25, 2012 Rise Set
Actual Time 6:56 AM PDT 7:20 PM PDT
Civil Twilight 6:28 AM PDT 7:48 PM PDT
Nautical Twilight 5:55 AM PDT 8:21 PM PDT
Astronomical Twilight 5:22 AM PDT 8:54 PM PDT
Moon 8:08 AM PDT (3/25) 10:44 PM PDT (3/25)
Length of Visible Light 13h 19m
Length of Day
12h 24m
Waxing Crescent, 9% of the Moon is Illuminated
Mar 25
Waxing Crescent
Mar 30
First Quarter
Apr 6
Full
Apr 13
Last Quarter
Apr 21
New

Hourly Weather History & Observations

Time (PDT) Temp. Windchill Dew Point Humidity Pressure Visibility Wind Dir Wind Speed Gust Speed Precip Events Conditions
12:55 AM 37.0 °F - 24.1 °F 59% 29.71 in 10.0 mi Calm Calm - N/A   Scattered Clouds
1:55 AM 36.0 °F - 25.0 °F 64% 29.71 in 10.0 mi Calm Calm - N/A   Overcast
2:55 AM 34.0 °F 29.8 °F 26.1 °F 73% 29.68 in 10.0 mi NE 4.6 mph - N/A   Overcast
3:55 AM 33.1 °F 27.7 °F 26.1 °F 75% 29.67 in 10.0 mi NE 5.8 mph - N/A   Overcast
4:55 AM 30.0 °F - 26.1 °F 85% 29.66 in 10.0 mi Calm Calm - N/A   Overcast
5:55 AM 32.0 °F 28.7 °F 27.0 °F 82% 29.66 in 10.0 mi East 3.5 mph - N/A   Overcast
6:55 AM 30.9 °F 26.2 °F 27.0 °F 85% 29.68 in 10.0 mi WSW 4.6 mph - N/A   Overcast
7:55 AM 35.1 °F - 28.0 °F 76% 29.69 in 10.0 mi Calm Calm - N/A   Overcast
8:55 AM 37.9 °F - 28.9 °F 70% 29.70 in 10.0 mi Calm Calm - N/A   Overcast
9:48 AM 37.4 °F 31.4 °F 30.2 °F 75% 29.72 in 7.0 mi SSW 8.1 mph - 0.00 in Snow Light Snow
9:55 AM 39.0 °F 34.8 °F 32.0 °F 76% 29.71 in 10.0 mi South 5.8 mph - 0.00 in Rain Light Rain
10:12 AM 39.2 °F 35.9 °F 33.8 °F 81% 29.72 in 10.0 mi East 4.6 mph - 0.00 in   Overcast
10:55 AM 42.1 °F 39.2 °F 34.0 °F 73% 29.69 in 10.0 mi ENE 4.6 mph - 0.00 in   Partly Cloudy
11:55 AM 46.0 °F 44.8 °F 32.0 °F 58% 29.68 in 10.0 mi Variable 3.5 mph - N/A   Overcast
12:33 PM 46.4 °F 39.0 °F 30.2 °F 53% 29.71 in 10.0 mi West 19.6 mph - N/A   Partly Cloudy
12:55 PM 46.0 °F 38.3 °F 30.9 °F 56% 29.71 in 10.0 mi West 20.7 mph 24.2 mph N/A   Mostly Cloudy
1:55 PM 46.0 °F 38.5 °F 30.0 °F 54% 29.72 in 10.0 mi West 19.6 mph 27.6 mph N/A   Clear
2:55 PM 46.0 °F 38.3 °F 28.0 °F 50% 29.71 in 10.0 mi WSW 20.7 mph 26.5 mph N/A   Clear
3:55 PM 46.0 °F 39.6 °F 28.0 °F 50% 29.70 in 10.0 mi West 15.0 mph 23.0 mph N/A   Clear
4:55 PM 44.1 °F 36.8 °F 26.1 °F 49% 29.71 in 10.0 mi West 16.1 mph - N/A   Clear
5:55 PM 42.1 °F 36.1 °F 27.0 °F 55% 29.73 in 10.0 mi WNW 10.4 mph - N/A   Overcast
6:55 PM 39.9 °F 32.5 °F 26.1 °F 58% 29.74 in 10.0 mi WSW 12.7 mph - N/A   Overcast
7:55 PM 37.9 °F 32.7 °F 25.0 °F 60% 29.74 in 10.0 mi West 6.9 mph - N/A   Overcast
8:55 PM 37.0 °F 32.4 °F 25.0 °F 62% 29.75 in 10.0 mi West 5.8 mph - 0.00 in   Overcast
9:55 PM 35.1 °F 31.0 °F 24.1 °F 64% 29.76 in 10.0 mi WNW 4.6 mph - N/A   Clear
10:55 PM 33.1 °F - 28.9 °F 85% 29.73 in 10.0 mi Calm Calm - N/A   Clear
11:55 PM 28.9 °F 25.2 °F 27.0 °F 92% 29.75 in 10.0 mi WSW 3.5 mph - N/A   Scattered Clouds